Tracking 31027 objects as of 19-Jul-2025
HD Live streaming from Space Station
objects crossing your sky now

SL-14 R/B

Track SL-14 R/B now!
10-day predictions


NORAD ID: 16409
Int'l Code: 1985-119B
Perigee: 942.5 km
Apogee: 964.9 km
Inclination: 82.5 °
Period: 104.0 minutes
Semi major axis: 7324 km
RCS: 5.0426 m2 (large)
Launch date: December 26, 1985
Source: Commonwealth of Independent States (former USSR) (CIS)
Launch site: PLESETSK MISSILE AND SPACE COMPLEX (PKMTR)

Note: This is a ROCKET BODY
Your satellite tracking list
NOAA 16 DEB
Track 1 satellite(s)




NASA's NSSDC Master Catalog

Two Line Element Set (TLE):
1 16409U 85119B   25199.88759544  .00000046  00000-0  27335-4 0  9994
2 16409  82.5378 167.7808 0015275  15.3681 344.7941 13.84910079999344
Source of the keplerian elements: AFSPC